Time,TemperatureF,DewpointF,PressureIn,WindDirection,WindDirectionDegrees,WindSpeedMPH,WindSpeedGustMPH,Humidity,HourlyPrecipIn,Conditions,Clouds,dailyrainin,SoftwareType,DateUTC
2013-03-11 00:03:00,31.0,28.0,29.98,West,261,6.0,8.0,88,0.00,,,1.51,,2013-03-11 05:03:00,
2013-03-11 00:12:00,31.0,28.0,29.98,West,261,6.0,8.0,88,0.00,,,1.51,,2013-03-11 05:12:00,
2013-03-11 00:22:00,31.0,28.0,29.98,West,281,7.0,10.0,89,0.00,,,1.51,,2013-03-11 05:22:00,
2013-03-11 00:32:00,30.0,27.0,29.98,WNW,288,4.0,9.0,89,0.00,,,0.97,,2013-03-11 05:32:00,
2013-03-11 00:42:00,30.0,27.0,29.98,WNW,288,4.0,9.0,89,0.00,,,0.97,,2013-03-11 05:42:00,
2013-03-11 00:52:00,30.0,27.0,29.98,West,263,4.0,10.0,89,0.00,,,0.97,,2013-03-11 05:52:00,
2013-03-11 01:02:00,30.0,27.0,29.98,SW,216,6.0,9.0,90,0.00,,,0.97,,2013-03-11 06:02:00,
2013-03-11 01:12:00,30.0,27.0,29.98,SW,216,6.0,9.0,90,0.00,,,0.97,,2013-03-11 06:12:00,
2013-03-11 01:22:00,30.0,28.0,29.97,WSW,255,2.0,9.0,91,0.00,,,0.97,,2013-03-11 06:22:00,
2013-03-11 01:32:00,30.0,28.0,29.97,West,278,5.0,8.0,91,0.00,,,0.80,,2013-03-11 06:32:00,
2013-03-11 01:42:00,30.0,28.0,29.97,West,278,5.0,8.0,91,0.00,,,0.80,,2013-03-11 06:42:00,
2013-03-11 01:52:00,30.0,27.0,29.96,WNW,296,4.0,10.0,89,0.00,,,0.80,,2013-03-11 06:52:00,
2013-03-11 02:02:00,30.0,27.0,29.96,WNW,295,4.0,9.0,89,0.00,,,0.80,,2013-03-11 07:02:00,
2013-03-11 02:12:00,30.0,27.0,29.96,WNW,295,4.0,9.0,89,0.00,,,0.80,,2013-03-11 07:12:00,
2013-03-11 02:22:00,30.0,27.0,29.96,West,260,5.0,10.0,89,0.00,,,0.80,,2013-03-11 07:22:00,
2013-03-11 02:32:00,29.0,26.0,29.95,WNW,300,5.0,9.0,88,0.00,,,0.72,,2013-03-11 07:32:00,
2013-03-11 02:42:00,29.0,26.0,29.95,WNW,300,5.0,9.0,88,0.00,,,0.72,,2013-03-11 07:42:00,
2013-03-11 02:52:00,29.0,26.0,29.95,West,278,2.0,8.0,88,0.00,,,0.72,,2013-03-11 07:52:00,
2013-03-11 03:02:00,29.0,26.0,29.96,West,276,5.0,10.0,87,0.00,,,0.72,,2013-03-11 08:02:00,
2013-03-11 03:12:00,29.0,26.0,29.96,West,276,5.0,10.0,87,0.00,,,0.72,,2013-03-11 08:12:00,
2013-03-11 03:22:00,29.0,26.0,29.97,SW,235,4.0,9.0,88,0.00,,,0.72,,2013-03-11 08:22:00,
2013-03-11 03:32:00,29.0,26.0,29.98,WNW,282,5.0,11.0,88,0.00,,,0.63,,2013-03-11 08:32:00,
2013-03-11 03:42:00,29.0,26.0,29.98,WNW,282,5.0,11.0,88,0.00,,,0.63,,2013-03-11 08:42:00,
2013-03-11 03:52:00,29.0,25.0,29.98,West,273,5.0,9.0,85,0.00,,,0.63,,2013-03-11 08:52:00,
2013-03-11 04:02:00,29.0,25.0,29.98,WNW,290,2.0,6.0,86,0.00,,,0.63,,2013-03-11 09:02:00,
2013-03-11 04:12:00,29.0,25.0,29.98,WNW,290,2.0,6.0,86,0.00,,,0.63,,2013-03-11 09:12:00,
2013-03-11 04:23:00,29.0,25.0,29.98,West,269,5.0,10.0,85,0.00,,,0.63,,2013-03-11 09:23:00,
2013-03-11 04:32:00,29.0,25.0,29.98,West,268,4.0,8.0,86,0.00,,,0.62,,2013-03-11 09:32:00,
2013-03-11 04:42:00,29.0,25.0,29.98,West,268,4.0,8.0,86,0.00,,,0.62,,2013-03-11 09:42:00,
2013-03-11 04:52:00,29.0,25.0,29.98,West,274,4.0,9.0,85,0.00,,,0.62,,2013-03-11 09:52:00,
2013-03-11 05:02:00,29.0,25.0,29.98,WNW,286,5.0,10.0,84,0.00,,,0.62,,2013-03-11 10:02:00,
2013-03-11 05:12:00,29.0,25.0,29.98,WNW,286,5.0,10.0,84,0.00,,,0.62,,2013-03-11 10:12:00,
2013-03-11 05:22:00,29.0,25.0,29.97,WSW,257,2.0,8.0,85,0.00,,,0.62,,2013-03-11 10:22:00,
2013-03-11 05:32:00,29.0,25.0,29.97,WNW,282,3.0,7.0,86,0.00,,,0.51,,2013-03-11 10:32:00,
2013-03-11 05:42:00,29.0,25.0,29.97,WNW,282,3.0,7.0,86,0.00,,,0.51,,2013-03-11 10:42:00,
2013-03-11 05:52:00,29.0,25.0,29.98,West,269,3.0,9.0,85,0.00,,,0.51,,2013-03-11 10:52:00,
2013-03-11 06:02:00,29.0,25.0,29.98,West,272,4.0,11.0,85,0.00,,,0.51,,2013-03-11 11:02:00,
2013-03-11 06:12:00,29.0,25.0,29.98,West,272,4.0,11.0,85,0.00,,,0.51,,2013-03-11 11:12:00,
2013-03-11 06:22:00,29.0,25.0,29.98,WSW,254,4.0,10.0,85,0.00,,,0.51,,2013-03-11 11:22:00,
2013-03-11 06:32:00,29.0,25.0,29.98,West,279,3.0,8.0,85,0.00,,,0.39,,2013-03-11 11:32:00,
2013-03-11 06:42:00,29.0,25.0,29.98,West,279,3.0,8.0,85,0.00,,,0.39,,2013-03-11 11:42:00,
2013-03-11 06:52:00,29.0,25.0,29.98,WSW,245,2.0,8.0,86,0.00,,,0.39,,2013-03-11 11:52:00,
2013-03-11 07:02:00,29.0,25.0,29.98,West,267,2.0,7.0,86,0.00,,,0.39,,2013-03-11 12:02:00,
2013-03-11 07:22:00,29.0,25.0,29.98,West,267,2.0,7.0,86,0.00,,,0.39,,2013-03-11 12:22:00,
2013-03-11 07:32:00,28.0,24.0,29.98,West,281,2.0,7.0,86,0.00,,,0.25,,2013-03-11 12:32:00,
2013-03-11 07:42:00,28.0,24.0,29.98,West,281,2.0,7.0,86,0.00,,,0.25,,2013-03-11 12:42:00,
2013-03-11 07:53:00,28.0,25.0,29.98,West,274,1.0,7.0,87,0.00,,,0.25,,2013-03-11 12:53:00,
2013-03-11 08:02:00,28.0,25.0,29.98,WNW,285,3.0,7.0,88,0.00,,,0.25,,2013-03-11 13:02:00,
2013-03-11 08:12:00,28.0,25.0,29.98,WNW,285,3.0,7.0,88,0.00,,,0.25,,2013-03-11 13:12:00,
2013-03-11 08:22:00,28.0,25.0,29.98,West,267,2.0,6.0,88,0.00,,,0.25,,2013-03-11 13:22:00,
2013-03-11 08:32:00,28.0,25.0,29.99,WSW,253,3.0,8.0,88,0.00,,,0.16,,2013-03-11 13:32:00,
2013-03-11 08:42:00,28.0,25.0,29.99,WSW,253,3.0,8.0,88,0.00,,,0.16,,2013-03-11 13:42:00,
2013-03-11 08:52:00,28.0,25.0,29.99,West,269,2.0,7.0,88,0.00,,,0.16,,2013-03-11 13:52:00,
2013-03-11 09:02:00,29.0,26.0,29.99,West,273,4.0,10.0,87,0.00,,,0.16,,2013-03-11 14:02:00,
2013-03-11 09:12:00,29.0,26.0,29.99,West,273,4.0,10.0,87,0.00,,,0.16,,2013-03-11 14:12:00,
2013-03-11 09:22:00,29.0,26.0,30.00,West,271,3.0,9.0,87,0.00,,,0.16,,2013-03-11 14:22:00,
2013-03-11 09:33:00,29.0,25.0,30.01,WSW,240,4.0,9.0,84,0.00,,,0.03,,2013-03-11 14:33:00,
2013-03-11 09:42:00,29.0,25.0,30.01,WSW,240,4.0,9.0,84,0.00,,,0.03,,2013-03-11 14:42:00,
2013-03-11 09:52:00,30.0,25.0,30.02,West,273,6.0,11.0,83,0.00,,,0.03,,2013-03-11 14:52:00,
2013-03-11 10:02:00,30.0,25.0,30.03,WNW,290,4.0,12.0,82,0.00,,,0.03,,2013-03-11 15:02:00,
2013-03-11 10:12:00,30.0,25.0,30.03,WNW,290,4.0,12.0,82,0.00,,,0.03,,2013-03-11 15:12:00,
2013-03-11 10:22:00,30.0,25.0,30.03,West,275,4.0,7.0,83,0.00,,,0.03,,2013-03-11 15:22:00,
2013-03-11 10:32:00,31.0,26.0,30.03,West,267,2.0,10.0,82,0.00,,,0.01,,2013-03-11 15:32:00,
2013-03-11 10:42:00,31.0,26.0,30.03,West,267,2.0,10.0,82,0.00,,,0.01,,2013-03-11 15:42:00,
2013-03-11 10:52:00,31.0,26.0,30.03,WNW,288,4.0,6.0,81,0.00,,,0.01,,2013-03-11 15:52:00,
2013-03-11 11:02:00,32.0,27.0,30.03,West,266,4.0,6.0,81,0.00,,,0.01,,2013-03-11 16:02:00,
2013-03-11 11:12:00,32.0,27.0,30.03,West,266,4.0,6.0,81,0.00,,,0.01,,2013-03-11 16:12:00,
2013-03-11 11:22:00,32.0,27.0,30.03,West,279,2.0,8.0,81,0.00,,,0.01,,2013-03-11 16:22:00,
2013-03-11 11:32:00,32.0,27.0,30.03,WNW,282,4.0,7.0,81,0.00,,,0.01,,2013-03-11 16:32:00,
2013-03-11 11:43:00,32.0,27.0,30.03,WNW,282,4.0,7.0,81,0.00,,,0.01,,2013-03-11 16:43:00,
2013-03-11 11:52:00,32.0,26.0,30.04,West,267,4.0,9.0,79,0.00,,,0.01,,2013-03-11 16:52:00,
2013-03-11 12:02:00,33.0,27.0,30.03,West,273,3.0,9.0,78,0.00,,,0.01,,2013-03-11 17:02:00,
2013-03-11 12:14:00,33.0,27.0,30.03,West,273,3.0,9.0,78,0.00,,,0.01,,2013-03-11 17:14:00,
2013-03-11 12:25:00,35.0,28.0,30.03,West,276,4.0,7.0,76,0.00,,,0.01,,2013-03-11 17:25:00,
2013-03-11 12:35:00,36.0,29.0,30.03,WNW,302,3.0,7.0,76,0.00,,,0.00,,2013-03-11 17:35:00,
2013-03-11 12:42:00,36.0,29.0,30.03,WNW,302,3.0,7.0,76,0.00,,,0.00,,2013-03-11 17:42:00,
2013-03-11 12:52:00,36.0,28.0,30.03,WNW,284,4.0,10.0,72,0.00,,,0.00,,2013-03-11 17:52:00,
2013-03-11 13:02:00,37.0,29.0,30.03,West,281,5.0,10.0,73,0.00,,,0.00,,2013-03-11 18:02:00,
2013-03-11 13:12:00,37.0,29.0,30.03,West,281,5.0,10.0,73,0.00,,,0.00,,2013-03-11 18:12:00,
2013-03-11 13:23:00,38.0,29.0,30.04,West,275,6.0,9.0,70,0.00,,,0.00,,2013-03-11 18:23:00,
2013-03-11 13:32:00,39.0,29.0,30.03,WNW,286,6.0,10.0,67,0.00,,,0.00,,2013-03-11 18:32:00,
2013-03-11 13:42:00,39.0,29.0,30.03,WNW,286,6.0,10.0,67,0.00,,,0.00,,2013-03-11 18:42:00,
2013-03-11 13:52:00,39.0,29.0,30.02,West,271,5.0,12.0,68,0.00,,,0.00,,2013-03-11 18:52:00,
2013-03-11 14:02:00,41.0,31.0,30.02,West,273,4.0,12.0,66,0.00,,,0.00,,2013-03-11 19:02:00,
2013-03-11 14:12:00,41.0,31.0,30.02,West,273,4.0,12.0,66,0.00,,,0.00,,2013-03-11 19:12:00,
2013-03-11 14:22:00,41.0,30.0,30.01,WSW,257,5.0,9.0,65,0.00,,,0.00,,2013-03-11 19:22:00,
2013-03-11 14:32:00,42.0,30.0,30.00,WNW,285,4.0,10.0,61,0.00,,,0.00,,2013-03-11 19:32:00,
2013-03-11 14:42:00,42.0,30.0,30.00,WNW,285,4.0,10.0,61,0.00,,,0.00,,2013-03-11 19:42:00,
2013-03-11 14:52:00,42.0,29.0,30.00,West,274,3.0,9.0,60,0.00,,,0.00,,2013-03-11 19:52:00,
2013-03-11 15:02:00,42.0,29.0,30.00,WNW,290,6.0,12.0,59,0.00,,,0.00,,2013-03-11 20:02:00,
2013-03-11 15:12:00,42.0,29.0,30.00,WNW,290,6.0,12.0,59,0.00,,,0.00,,2013-03-11 20:12:00,
2013-03-11 15:22:00,43.0,29.0,30.00,WNW,290,4.0,12.0,57,0.00,,,0.00,,2013-03-11 20:22:00,
2013-03-11 15:32:00,44.0,29.0,30.00,WNW,284,5.0,9.0,55,0.00,,,0.00,,2013-03-11 20:32:00,
2013-03-11 15:43:00,44.0,29.0,30.00,WNW,284,5.0,9.0,55,0.00,,,0.00,,2013-03-11 20:43:00,
2013-03-11 15:52:00,45.0,30.0,30.00,WSW,250,5.0,10.0,56,0.00,,,0.00,,2013-03-11 20:52:00,
2013-03-11 16:03:00,45.0,29.0,30.00,SW,227,5.0,10.0,53,0.00,,,0.00,,2013-03-11 21:03:00,
2013-03-11 16:12:00,45.0,29.0,30.00,SW,227,5.0,10.0,53,0.00,,,0.00,,2013-03-11 21:12:00,
2013-03-11 16:22:00,45.0,27.0,30.00,West,269,3.0,11.0,49,0.00,,,0.00,,2013-03-11 21:22:00,
2013-03-11 16:32:00,45.0,27.0,30.01,West,267,6.0,12.0,48,0.00,,,0.00,,2013-03-11 21:32:00,
2013-03-11 16:43:00,45.0,27.0,30.01,West,267,6.0,12.0,48,0.00,,,0.00,,2013-03-11 21:43:00,
2013-03-11 16:52:00,45.0,27.0,30.01,WNW,290,3.0,10.0,49,0.00,,,0.00,,2013-03-11 21:52:00,
2013-03-11 17:02:00,46.0,27.0,30.00,WNW,288,3.0,7.0,47,0.00,,,0.00,,2013-03-11 22:02:00,
2013-03-11 17:12:00,46.0,27.0,30.00,WNW,288,3.0,7.0,47,0.00,,,0.00,,2013-03-11 22:12:00,
2013-03-11 17:22:00,47.0,28.0,30.00,West,277,4.0,10.0,47,0.00,,,0.00,,2013-03-11 22:22:00,
2013-03-11 17:32:00,46.0,27.0,30.01,West,271,5.0,11.0,47,0.00,,,0.00,,2013-03-11 22:32:00,
2013-03-11 17:43:00,46.0,27.0,30.01,West,271,5.0,11.0,47,0.00,,,0.00,,2013-03-11 22:43:00,
2013-03-11 17:52:00,47.0,26.0,30.01,WNW,288,4.0,8.0,43,0.00,,,0.00,,2013-03-11 22:52:00,
2013-03-11 18:03:00,46.0,25.0,30.01,WSW,257,4.0,10.0,43,0.00,,,0.00,,2013-03-11 23:03:00,
2013-03-11 18:12:00,46.0,25.0,30.01,WSW,257,4.0,10.0,43,0.00,,,0.00,,2013-03-11 23:12:00,
2013-03-11 18:22:00,46.0,25.0,30.01,West,270,4.0,8.0,44,0.00,,,0.00,,2013-03-11 23:22:00,
2013-03-11 18:32:00,46.0,24.0,30.01,West,263,3.0,8.0,42,0.00,,,0.00,,2013-03-11 23:32:00,
2013-03-11 18:43:00,46.0,24.0,30.01,West,263,3.0,8.0,42,0.00,,,0.00,,2013-03-11 23:43:00,
2013-03-11 18:52:00,45.0,23.0,30.01,NW,326,5.0,9.0,41,0.00,,,0.00,,2013-03-11 23:52:00,
2013-03-11 19:02:00,44.0,22.0,30.01,WSW,250,2.0,7.0,41,0.00,,,0.00,,2013-03-12 00:02:00,
2013-03-11 19:12:00,44.0,22.0,30.01,WSW,250,2.0,7.0,41,0.00,,,0.00,,2013-03-12 00:12:00,
2013-03-11 19:22:00,43.0,23.0,30.01,West,267,1.0,6.0,44,0.00,,,0.00,,2013-03-12 00:22:00,
2013-03-11 19:33:00,42.0,27.0,30.01,West,280,0.0,0.0,55,0.00,,,0.00,,2013-03-12 00:33:00,
2013-03-11 19:42:00,42.0,27.0,30.01,West,280,0.0,0.0,55,0.00,,,0.00,,2013-03-12 00:42:00,
2013-03-11 19:53:00,38.0,27.0,30.02,West,280,0.0,0.0,65,0.00,,,0.00,,2013-03-12 00:53:00,
2013-03-11 20:02:00,35.0,27.0,30.02,NW,325,0.0,2.0,73,0.00,,,0.00,,2013-03-12 01:02:00,
2013-03-11 20:12:00,35.0,27.0,30.02,NW,325,0.0,2.0,73,0.00,,,0.00,,2013-03-12 01:12:00,
2013-03-11 20:22:00,33.0,27.0,30.02,NW,325,0.0,0.0,78,0.00,,,0.00,,2013-03-12 01:22:00,
2013-03-11 20:33:00,32.0,27.0,30.03,NW,325,0.0,0.0,81,0.00,,,0.00,,2013-03-12 01:33:00,
2013-03-11 20:42:00,32.0,27.0,30.03,NW,325,0.0,0.0,81,0.00,,,0.00,,2013-03-12 01:42:00,
2013-03-11 20:52:00,31.0,26.0,30.03,NW,325,0.0,0.0,83,0.00,,,0.00,,2013-03-12 01:52:00,
2013-03-11 21:02:00,30.0,26.0,30.03,NW,325,0.0,0.0,85,0.00,,,0.00,,2013-03-12 02:02:00,
2013-03-11 21:12:00,30.0,26.0,30.03,NW,325,0.0,0.0,85,0.00,,,0.00,,2013-03-12 02:12:00,
2013-03-11 21:22:00,29.0,25.0,30.04,NW,325,0.0,0.0,86,0.00,,,0.00,,2013-03-12 02:22:00,
2013-03-11 21:32:00,29.0,26.0,30.05,NW,325,0.0,0.0,87,0.00,,,0.00,,2013-03-12 02:32:00,
2013-03-11 21:42:00,29.0,26.0,30.05,NW,325,0.0,0.0,87,0.00,,,0.00,,2013-03-12 02:42:00,
2013-03-11 21:52:00,29.0,26.0,30.06,NW,325,0.0,0.0,88,0.00,,,0.00,,2013-03-12 02:52:00,
2013-03-11 22:02:00,28.0,25.0,30.06,NW,325,0.0,0.0,89,0.00,,,0.00,,2013-03-12 03:02:00,
2013-03-11 22:12:00,28.0,25.0,30.06,NW,325,0.0,0.0,89,0.00,,,0.00,,2013-03-12 03:12:00,
2013-03-11 22:22:00,28.0,25.0,30.07,NW,325,0.0,0.0,90,0.00,,,0.00,,2013-03-12 03:22:00,
2013-03-11 22:32:00,27.0,25.0,30.07,NW,325,0.0,0.0,91,0.00,,,0.00,,2013-03-12 03:32:00,
2013-03-11 22:42:00,27.0,25.0,30.07,NW,325,0.0,0.0,91,0.00,,,0.00,,2013-03-12 03:42:00,
2013-03-11 22:52:00,27.0,24.0,30.08,NW,325,0.0,0.0,90,0.00,,,0.00,,2013-03-12 03:52:00,
2013-03-11 23:02:00,27.0,24.0,30.08,NW,325,0.0,0.0,90,0.00,,,0.00,,2013-03-12 04:02:00,
2013-03-11 23:13:00,27.0,24.0,30.08,NW,325,0.0,0.0,90,0.00,,,0.00,,2013-03-12 04:13:00,
2013-03-11 23:22:00,27.0,25.0,30.09,NW,325,0.0,0.0,91,0.00,,,0.00,,2013-03-12 04:22:00,
2013-03-11 23:32:00,26.0,24.0,30.09,NW,325,0.0,0.0,92,0.00,,,0.00,,2013-03-12 04:32:00,
2013-03-11 23:43:00,26.0,24.0,30.09,NW,325,0.0,0.0,92,0.00,,,0.00,,2013-03-12 04:43:00,
2013-03-11 23:52:00,26.0,24.0,30.08,NW,325,0.0,0.0,92,0.00,,,0.00,,2013-03-12 04:52:00,